{"data":{"norad_id":53404,"intl_designator":"2022-097S","name":"STARLINK-4509","alt_names":[],"object_type":"PAYLOAD","status":"ACTIVE","operator":null,"country":"US","launch_date":"2022-08-10","launch_site_code":"AFETR","launch_vehicle":null,"mission":null,"orbit_class":"UNKNOWN","rcs_meters":null,"size_class":null,"mass_kg":null,"dimensions":null,"purposes":["comms"],"wikipedia_slug":null,"has_3d_model":false,"image_url":null,"decayed_at":null,"tle_current":{"epoch":"2026-09-19T20:39:16.228800Z","epoch_age_seconds":130461,"freshness":"FRESH","line1":"1 53404U 22097S   26262.86060450  .00000012  00000+0  12148-4 0  9995","line2":"2 53404  53.1596 309.7855 0001123  84.3492 275.7637 15.31697330228132","mean_motion":15.3169733,"eccentricity":0.0001123,"inclination_deg":53.1596,"raan_deg":309.7855,"arg_perigee_deg":84.3492,"mean_anomaly_deg":275.7637,"bstar":1.2148e-5,"rev_number":22813,"period_min":94.013351841516,"perigee_km":469.9788245879,"apogee_km":471.51708414865,"semimajor_km":6848.8849543683,"source":"CELESTRAK","updated_at":"2026-09-20T09:00:40.226282Z"}}}